Florence, SC

9:44 PM EDT on March 22, 2017 (GMT -0400)
Florence Regional

Weather History for KFLO - August, 2013

Change the Weather History Date:

Sunday, August 18, 2013

  Actual Average Record
Temperature  
Mean Temperature 79 °F 80 °F  
Max Temperature 88 °F 89 °F 101 °F (1988)
Min Temperature 70 °F 71 °F 55 °F (1979)
Degree Days  
Heating Degree Days 0 0  
Month to date heating degree days 0 0  
Since 1 June heating degree days 0 1  
Since 1 July heating degree days 0 0  
Cooling Degree Days 14 15  
Month to date cooling degree days 260 280  
Year to date cooling degree days 1445 1486  
Since 1 June cooling degree days 1178 1179  
Growing Degree Days 28 (Base 50)    
Moisture  
Dew Point 71 °F    
Average Humidity 77    
Maximum Humidity 97    
Minimum Humidity 57    
Precipitation  
Precipitation T in 0.17 in 3.21 in (2005)
Month to date precipitation 1.46 3.12  
Year to date precipitation 43.48 28.36  
Sea Level Pressure  
Sea Level Pressure 30.16 in    
Wind  
Wind Speed 1 mph (WSW)    
Max Wind Speed 7 mph    
Max Gust Speed 17 mph    
Visibility 10 miles    
Events Rain    
T = Trace of Precipitation, MM = Missing Value Source: NWS Daily Summary

Daily Weather History Graph

Daily Weather History Graph

Search for Another Location

Airport or City:

Trip Planner

Search our weather history database for the weather conditions in past years. The results will help you decide how hot, cold, wet, or windy it might be!

Date:

Astronomy

Aug. 18, 2013 Rise Set
Actual Time 6:42 AM EDT 8:02 PM EDT
Civil Twilight 6:16 AM EDT 8:28 PM EDT
Nautical Twilight 5:44 AM EDT 8:59 PM EDT
Astronomical Twilight 5:11 AM EDT 9:32 PM EDT
Moon 6:04 PM EDT (8/18) 3:53 AM EDT (8/18)
Length of Visible Light 14h 12m
Length of Day
13h 19m
Waxing Gibbous, 92% of the Moon is Illuminated
Aug 18
Waxing Gibbous
Aug 20
Full
Aug 28
Last Quarter
Sep 5
New
Sep 12
First Quarter

Hourly Weather History & Observations

Time (EDT) Temp. Heat Index Dew Point Humidity Pressure Visibility Wind Dir Wind Speed Gust Speed Precip Events Conditions
12:53 AM 71.1 °F - 68.0 °F 90% 30.15 in 10.0 mi West 3.5 mph - N/A   Overcast
1:53 AM 71.1 °F - 68.0 °F 90% 30.13 in 10.0 mi Calm Calm - N/A   Overcast
2:53 AM 71.1 °F - 68.0 °F 90% 30.14 in 10.0 mi Calm Calm - N/A   Overcast
3:53 AM 71.1 °F - 68.0 °F 90% 30.14 in 10.0 mi South 3.5 mph - N/A   Overcast
4:53 AM 71.1 °F - 68.0 °F 90% 30.13 in 9.0 mi Calm Calm - 0.00 in Rain Light Rain
5:53 AM 70.0 °F - 68.0 °F 93% 30.14 in 8.0 mi NNW 3.5 mph - N/A   Overcast
6:53 AM 70.0 °F - 68.0 °F 93% 30.17 in 8.0 mi Calm Calm - N/A   Overcast
7:53 AM 71.1 °F - 68.0 °F 90% 30.17 in 10.0 mi Calm Calm - N/A   Overcast
8:53 AM 73.9 °F - 69.1 °F 85% 30.18 in 10.0 mi Calm Calm - N/A   Overcast
9:35 AM 75.2 °F - 69.8 °F 83% 30.19 in 10.0 mi Calm Calm - N/A   Partly Cloudy
9:53 AM 78.1 °F - 70.0 °F 76% 30.19 in 10.0 mi Calm Calm - N/A   Partly Cloudy
10:46 AM 80.6 °F 83.9 °F 69.8 °F 70% 30.21 in 10.0 mi Calm Calm - N/A   Mostly Cloudy
10:53 AM 80.1 °F 83.2 °F 70.0 °F 71% 30.20 in 10.0 mi NW 3.5 mph - N/A   Mostly Cloudy
11:53 AM 81.0 °F 84.4 °F 70.0 °F 69% 30.20 in 10.0 mi Calm Calm - N/A   Mostly Cloudy
12:53 PM 82.9 °F 87.5 °F 71.1 °F 67% 30.18 in 10.0 mi Calm Calm - N/A   Mostly Cloudy
1:53 PM 84.9 °F 90.1 °F 71.1 °F 63% 30.17 in 10.0 mi Variable 3.5 mph - N/A   Mostly Cloudy
2:53 PM 84.9 °F 90.1 °F 71.1 °F 63% 30.16 in 10.0 mi Variable 3.5 mph - N/A   Mostly Cloudy
3:53 PM 86.0 °F 92.2 °F 72.0 °F 63% 30.14 in 10.0 mi Calm Calm - N/A   Overcast
4:53 PM 86.0 °F 90.7 °F 70.0 °F 59% 30.12 in 10.0 mi Calm Calm - N/A   Clear
5:53 PM 86.0 °F 91.5 °F 71.1 °F 61% 30.12 in 10.0 mi Calm Calm - N/A   Mostly Cloudy
6:53 PM 84.0 °F 90.2 °F 73.0 °F 69% 30.12 in 10.0 mi Calm Calm - N/A   Clear
7:53 PM 82.0 °F 87.9 °F 73.9 °F 76% 30.13 in 10.0 mi Calm Calm - N/A   Clear
8:53 PM 80.1 °F 84.5 °F 73.9 °F 81% 30.14 in 10.0 mi Calm Calm - N/A   Overcast
9:53 PM 79.0 °F - 75.0 °F 88% 30.16 in 10.0 mi Calm Calm - 0.00 in Rain Light Rain
10:53 PM 79.0 °F - 75.0 °F 88% 30.16 in 10.0 mi SSE 4.6 mph - 0.00 in   Partly Cloudy
11:53 PM 78.1 °F - 75.0 °F 90% 30.16 in 10.0 mi SSW 3.5 mph - 0.00 in Rain Light Rain